K1LVA Weather Reports


time (UTC)temp
C
wind
direction
speed
KPH
gust
KPH
rain 1hr
cm
rain 24hr
cm
rain mn
cm
humidity
%
barometer
mb
20260506051221 16 168 3.2 3.2 0.00 0.00 0.00 83 1015.7
20260506050719 16 157 3.2 3.2 0.00 0.00 0.00 83 1015.8
20260506050215 16 148 4.8 4.8 0.00 0.00 0.00 82 1015.8
20260506044701 17 132 4.8 4.8 0.00 0.00 0.00 81 1015.8
20260506044157 17 132 3.2 3.2 0.00 0.00 0.00 81 1015.9
20260506043655 17 183 3.2 3.2 0.00 0.00 0.00 81 1015.9
20260506043153 17 155 4.8 4.8 0.00 0.00 0.00 80 1015.9
20260506042651 17 169 4.8 4.8 0.00 0.00 0.00 80 1016.1
20260506042148 17 120 4.8 4.8 0.00 0.00 0.00 80 1016.0
20260506041642 17 155 4.8 4.8 0.00 0.00 0.00 79 1015.8
20260506041138 17 146 6.4 8.0 0.00 0.00 0.00 79 1015.8
20260506040636 17 145 4.8 8.0 0.00 0.00 0.00 78 1015.8
20260506040133 17 109 3.2 3.2 0.00 0.00 0.00 78 1016.1
20260506035629 17 123 4.8 8.0 0.00 0.00 0.00 78 1015.9
20260506035125 17 134 3.2 3.2 0.00 0.00 0.00 77 1016.1
20260506034623 17 179 4.8 4.8 0.00 0.00 0.00 77 1016.0
20260506034119 17 163 6.4 8.0 0.00 0.00 0.00 77 1016.2
20260506033617 18 147 4.8 4.8 0.00 0.00 0.00 76 1016.0
20260506033113 18 131 3.2 3.2 0.00 0.00 0.00 75 1016.1
20260506032606 18 106 3.2 3.2 0.00 0.00 0.00 75 1016.0
20260506032103 18 168 4.8 8.0 0.00 0.00 0.00 75 1016.0
20260506031600 18 134 3.2 3.2 0.00 0.00 0.00 74 1016.0
20260506031056 18 133 4.8 4.8 0.00 0.00 0.00 74 1016.0
20260506030555 18 170 3.2 3.2 0.00 0.00 0.00 74 1016.1
20260506030052 18 152 4.8 4.8 0.00 0.00 0.00 73 1015.9
20260506025549 18 152 6.4 9.7 0.00 0.00 0.00 73 1015.9
20260506025044 19 166 4.8 4.8 0.00 0.00 0.00 73 1015.8
20260506024541 19 157 3.2 3.2 0.00 0.00 0.00 73 1015.6
20260506024037 19 143 4.8 8.0 0.00 0.00 0.00 72 1015.6
20260506023534 19 141 8.0 8.0 0.00 0.00 0.00 73 1015.7
20260506023031 19 127 6.4 8.0 0.00 0.00 0.00 72 1015.4
20260506022529 20 111 3.2 3.2 0.00 0.00 0.00 73 1015.7
20260506022021 20 182 3.2 3.2 0.00 0.00 0.00 72 1015.7
20260506021518 20 116 8.0 11.3 0.00 0.00 0.00 72 1015.6
20260506021015 20 147 3.2 3.2 0.00 0.00 0.00 73 1016.0
20260506020513 20 154 4.8 4.8 0.00 0.00 0.00 72 1015.8
20260506020010 20 165 4.8 4.8 0.00 0.00 0.00 71 1015.5
20260506015508 20 109 8.0 9.7 0.00 0.00 0.00 71 1015.7
20260506015004 20 161 4.8 4.8 0.00 0.00 0.00 71 1015.7
20260506014502 20 117 6.4 8.0 0.00 0.00 0.00 71 1015.4
20260506013957 21 111 6.4 8.0 0.00 0.00 0.00 70 1015.5
20260506013456 21 131 6.4 9.7 0.00 0.00 0.00 70 1015.2
20260506012951 21 106 4.8 4.8 0.00 0.00 0.00 70 1015.3
20260506012448 21 137 3.2 3.2 0.00 0.00 0.00 70 1015.2
20260506011945 21 171 8.0 12.9 0.00 0.00 0.00 69 1015.2
20260506011442 21 72 8.0 9.7 0.00 0.00 0.00 69 1015.2
20260506010939 21 135 6.4 8.0 0.00 0.00 0.00 69 1015.0
20260506010438 21 141 8.0 9.7 0.00 0.00 0.00 68 1015.1
20260506005934 22 168 6.4 8.0 0.00 0.00 0.00 67 1014.7
20260506005432 22 135 9.7 12.9 0.00 0.00 0.00 65 1014.8
20260506004927 22 160 1.6 3.2 0.00 0.00 0.00 64 1014.8
20260506004425 22 147 8.0 12.9 0.00 0.00 0.00 62 1014.4
20260506003921 22 137 8.0 11.3 0.00 0.00 0.00 59 1014.4
20260506003418 22 152 3.2 3.2 0.00 0.00 0.00 58 1014.4
20260506002914 22 128 4.8 4.8 0.00 0.00 0.00 58 1014.1
20260506002410 22 141 8.0 9.7 0.00 0.00 0.00 56 1014.0
20260506001905 21 132 1.6 1.6 0.00 0.00 0.00 55 1014.0
20260506001403 22 156 0.0 0.0 0.00 0.00 0.00 56 1013.7
20260506000900 23 158 0.0 0.0 0.00 0.00 0.00 51 1013.9
20260506000358 23 151 0.0 0.0 0.00 0.00 0.00 50 1013.8
20260505235854 23 132 0.0 1.6 0.00 0.00 0.00 52 1014.1
20260505235352 23 192 1.6 1.6 0.00 0.00 0.00 52 1014.2
20260505234848 23 146 0.0 0.0 0.00 0.00 0.00 52 1014.1
20260505234346 23 255 0.0 0.0 0.00 0.00 0.00 51 1014.0
20260505233843 24 246 0.0 0.0 0.00 0.00 0.00 50 1013.8
20260505233341 24 229 0.0 1.6 0.00 0.00 0.00 49 1014.0
20260505232838 25 174 3.2 3.2 0.00 0.00 0.00 47 1013.9
20260505232336 25 119 4.8 4.8 0.00 0.00 0.00 47 1014.0
20260505231832 25 163 4.8 4.8 0.00 0.00 0.00 45 1014.2
20260505231330 25 249 0.0 0.0 0.00 0.00 0.00 46 1014.1
20260505230828 25 213 1.6 3.2 0.00 0.00 0.00 46 1014.3
20260505230325 26 162 4.8 4.8 0.00 0.00 0.00 45 1014.2
20260505225821 26 154 3.2 4.8 0.00 0.00 0.00 44 1014.3
20260505225319 26 143 4.8 8.0 0.00 0.00 0.00 43 1014.3
20260505224813 26 158 9.7 11.3 0.00 0.00 0.00 42 1014.3
20260505224311 26 110 4.8 4.8 0.00 0.00 0.00 42 1014.3
20260505223803 26 197 3.2 3.2 0.00 0.00 0.00 41 1014.5
20260505223300 26 163 4.8 8.0 0.00 0.00 0.00 42 1014.1
20260505222755 27 129 4.8 4.8 0.00 0.00 0.00 41 1014.4
20260505222252 28 183 4.8 8.0 0.00 0.00 0.00 41 1014.1
20260505221749 27 315 0.0 0.0 0.00 0.00 0.00 40 1014.1
20260505221246 27 123 1.6 3.2 0.00 0.00 0.00 40 1014.1
20260505220742 26 189 1.6 1.6 0.00 0.00 0.00 42 1014.1
20260505220240 26 236 3.2 4.8 0.00 0.00 0.00 42 1014.3
20260505215738 26 189 4.8 8.0 0.00 0.00 0.00 43 1014.4
20260505215235 27 319 3.2 3.2 0.00 0.00 0.00 40 1014.3
20260505214733 27 195 4.8 4.8 0.00 0.00 0.00 41 1014.2
20260505214230 27 116 6.4 8.0 0.00 0.00 0.00 40 1014.2
20260505213727 27 160 6.4 9.7 0.00 0.00 0.00 40 1014.2
20260505213224 28 134 6.4 8.0 0.00 0.00 0.00 41 1014.1
20260505212720 28 180 6.4 9.7 0.00 0.00 0.00 41 1014.1
20260505212218 28 126 3.2 4.8 0.00 0.00 0.00 40 1014.2
20260505211715 27 196 6.4 8.0 0.00 0.00 0.00 40 1014.0
20260505211212 28 135 6.4 8.0 0.00 0.00 0.00 41 1014.1
20260505210709 27 171 8.0 9.7 0.00 0.00 0.00 42 1014.4
20260505210205 26 186 4.8 4.8 0.00 0.00 0.00 42 1014.4
20260505205703 26 177 3.2 4.8 0.00 0.00 0.00 44 1014.5
20260505205201 26 138 4.8 4.8 0.00 0.00 0.00 43 1014.8
20260505204656 27 164 4.8 4.8 0.00 0.00 0.00 41 1014.4
20260505204154 26 183 4.8 4.8 0.00 0.00 0.00 44 1014.8
20260505203651 27 165 3.2 3.2 0.00 0.00 0.00 43 1014.7
20260505203143 27 320 4.8 4.8 0.00 0.00 0.00 39 1014.8
20260505202638 27 156 3.2 3.2 0.00 0.00 0.00 43 1014.6
20260505202134 27 119 6.4 8.0 0.00 0.00 0.00 43 1014.9
20260505201631 26 173 4.8 4.8 0.00 0.00 0.00 44 1015.0
20260505201129 27 110 8.0 11.3 0.00 0.00 0.00 43 1014.8
20260505200626 27 64 1.6 3.2 0.00 0.00 0.00 40 1015.0
20260505200123 27 321 0.0 1.6 0.00 0.00 0.00 40 1015.1
20260505195614 27 159 4.8 8.0 0.00 0.00 0.00 41 1014.9
20260505195111 27 148 4.8 4.8 0.00 0.00 0.00 41 1015.3
20260505194603 27 132 11.3 12.9 0.00 0.00 0.00 39 1015.0
20260505194058 27 142 8.0 9.7 0.00 0.00 0.00 45 1015.1
20260505193556 27 107 6.4 9.7 0.00 0.00 0.00 42 1015.2
20260505193052 27 183 3.2 8.0 0.00 0.00 0.00 40 1015.5
20260505192551 28 161 8.0 9.7 0.00 0.00 0.00 40 1015.3
20260505192048 28 148 4.8 8.0 0.00 0.00 0.00 43 1015.4
20260505191546 27 294 0.0 1.6 0.00 0.00 0.00 43 1015.5
20260505191044 27 22 4.8 8.0 0.00 0.00 0.00 42 1015.6
20260505190538 27 100 3.2 3.2 0.00 0.00 0.00 44 1015.7
20260505190035 26 195 3.2 3.2 0.00 0.00 0.00 41 1015.9
20260505185532 26 324 1.6 3.2 0.00 0.00 0.00 42 1016.0
20260505185028 27 156 3.2 3.2 0.00 0.00 0.00 42 1016.0
20260505184525 26 179 6.4 9.7 0.00 0.00 0.00 44 1016.3
20260505184021 26 195 4.8 4.8 0.00 0.00 0.00 42 1016.1
20260505183512 27 121 6.4 9.7 0.00 0.00 0.00 42 1016.5
20260505183009 27 8 1.6 3.2 0.00 0.00 0.00 42 1016.7
20260505182506 27 210 4.8 8.0 0.00 0.00 0.00 43 1016.8
20260505182002 26 323 1.6 1.6 0.00 0.00 0.00 44 1016.6
20260505181453 26 99 8.0 11.3 0.00 0.00 0.00 44 1016.8
20260505180950 26 126 4.8 8.0 0.00 0.00 0.00 44 1016.9
20260505180446 27 164 4.8 8.0 0.00 0.00 0.00 44 1016.7
20260505175944 26 304 0.0 0.0 0.00 0.00 0.00 44 1016.8
20260505175440 27 103 4.8 4.8 0.00 0.00 0.00 39 1017.0
20260505174936 28 302 0.0 0.0 0.00 0.00 0.00 41 1016.9
20260505174433 27 177 3.2 4.8 0.00 0.00 0.00 44 1016.7
20260505173929 27 175 6.4 9.7 0.00 0.00 0.00 44 1016.7
20260505173426 26 84 4.8 8.0 0.00 0.00 0.00 44 1016.6
20260505172923 27 174 8.0 11.3 0.00 0.00 0.00 44 1016.7
20260505172421 26 227 6.4 9.7 0.00 0.00 0.00 42 1016.7
20260505171920 26 144 8.0 9.7 0.00 0.00 0.00 43 1016.8
20260505171417 26 308 0.0 0.0 0.00 0.00 0.00 45 1017.0
20260505170914 26 146 4.8 4.8 0.00 0.00 0.00 42 1016.8
20260505170411 26 160 6.4 8.0 0.00 0.00 0.00 43 1016.9
20260505165907 26 120 3.2 4.8 0.00 0.00 0.00 43 1016.9
20260505165403 26 206 9.7 14.5 0.00 0.00 0.00 44 1016.9
20260505164858 26 156 4.8 8.0 0.00 0.00 0.00 42 1017.1
20260505164355 26 147 4.8 4.8 0.00 0.00 0.00 43 1017.1
20260505163853 26 108 8.0 11.3 0.00 0.00 0.00 42 1017.4
20260505163352 26 130 4.8 8.0 0.00 0.00 0.00 42 1017.4
20260505162850 26 174 11.3 14.5 0.00 0.00 0.00 43 1017.5
20260505162345 26 147 6.4 9.7 0.00 0.00 0.00 53 1017.3
20260505161843 25 176 3.2 4.8 0.00 0.00 0.00 51 1017.3
20260505161339 25 156 1.6 1.6 0.00 0.00 0.00 52 1017.2
20260505160837 25 121 3.2 3.2 0.00 0.00 0.00 53 1017.3
20260505160329 25 114 6.4 9.7 0.00 0.00 0.00 50 1017.3
20260505153302 25 133 6.4 8.0 0.00 0.00 0.00 60 1017.9
20260505152759 24 84 4.8 4.8 0.00 0.00 0.00 59 1018.0
20260505152255 24 112 4.8 4.8 0.00 0.00 0.00 61 1017.8
20260505151749 24 113 6.4 8.0 0.00 0.00 0.00 62 1018.0
20260505151247 23 176 3.2 3.2 0.00 0.00 0.00 61 1017.8
20260505150744 23 112 3.2 3.2 0.00 0.00 0.00 62 1017.9
20260505150241 23 163 4.8 4.8 0.00 0.00 0.00 64 1017.8
20260505140206 20 112 6.4 8.0 0.00 0.00 0.00 72 1017.5
20260505130130 17 172 1.6 3.2 0.00 0.00 0.00 87 1017.8
20260505124619 15 128 0.0 0.0 0.00 0.00 0.00 91 1017.6
20260505124116 15 152 0.0 0.0 0.00 0.00 0.00 92 1017.7
20260505123612 14 140 0.0 0.0 0.00 0.00 0.00 93 1017.7
20260505123108 13 132 0.0 0.0 0.00 0.00 0.00 94 1017.7
20260505122605 13 136 0.0 0.0 0.00 0.00 0.00 95 1017.7
20260505122102 13 268 0.0 0.0 0.00 0.00 0.00 96 1017.6
20260505121553 13 136 0.0 0.0 0.00 0.00 0.00 98 1017.3
20260505121050 12 195 0.0 0.0 0.00 0.00 0.00 99 1017.2
20260505120546 12 141 0.0 0.0 0.00 0.00 0.00 99 1017.0
20260505120042 12 186 0.0 0.0 0.00 0.00 0.00 99 1017.4
20260505115536 11 296 0.0 0.0 0.00 0.00 0.00 99 1017.3
20260505115034 11 303 0.0 0.0 0.00 0.00 0.00 99 1017.1
20260505114531 11 289 0.0 0.0 0.00 0.00 0.00 99 1017.3
20260505114027 11 266 0.0 0.0 0.00 0.00 0.00 99 1017.2
20260505113524 10 265 0.0 0.0 0.00 0.00 0.00 99 1017.1
20260505113020 10 264 0.0 0.0 0.00 0.00 0.00 99 1017.1
20260505112517 10 247 0.0 0.0 0.00 0.00 0.00 99 1016.8
20260505112015 10 284 0.0 0.0 0.00 0.00 0.00 99 1016.9
20260505111508 10 284 0.0 0.0 0.00 0.00 0.00 99 1017.0
20260505111005 10 271 0.0 0.0 0.00 0.00 0.00 99 1016.9
20260505110502 10 308 0.0 0.0 0.00 0.00 0.00 99 1016.9
20260505101933 10 314 0.0 0.0 0.00 0.00 0.00 99 1016.4
20260505101427 10 314 0.0 0.0 0.00 0.00 0.00 99 1016.6
20260505100923 10 305 0.0 0.0 0.00 0.00 0.00 99 1016.5
20260505100420 10 306 0.0 0.0 0.00 0.00 0.00 99 1016.7
20260505095916 10 306 0.0 0.0 0.00 0.00 0.00 99 1016.5
20260505095413 10 305 0.0 0.0 0.00 0.00 0.00 99 1016.4
20260505094909 10 307 0.0 0.0 0.00 0.00 0.00 99 1016.5
20260505094406 10 297 0.0 0.0 0.00 0.00 0.00 99 1016.7
20260505093901 10 309 0.0 0.0 0.00 0.00 0.00 99 1016.4
20260505093359 10 309 0.0 0.0 0.00 0.00 0.00 99 1016.4
20260505092856 10 309 0.0 0.0 0.00 0.00 0.00 99 1016.6
20260505092354 10 309 0.0 0.0 0.00 0.00 0.00 99 1016.5
20260505091851 10 309 0.0 0.0 0.00 0.00 0.00 99 1016.3
20260505091349 10 309 0.0 0.0 0.00 0.00 0.00 99 1016.5
20260505090847 10 309 0.0 0.0 0.00 0.00 0.00 98 1016.5
20260505090345 10 309 0.0 0.0 0.00 0.00 0.00 98 1016.3
20260505085842 10 309 0.0 0.0 0.00 0.00 0.00 98 1016.2
20260505085340 10 309 0.0 0.0 0.00 0.00 0.00 98 1016.3
20260505084837 10 309 0.0 0.0 0.00 0.00 0.00 98 1016.4
20260505084336 10 309 0.0 0.0 0.00 0.00 0.00 98 1016.2
20260505083833 10 309 0.0 0.0 0.00 0.00 0.00 98 1016.3
20260505083330 10 309 0.0 0.0 0.00 0.00 0.00 97 1016.1
20260505082826 10 309 0.0 0.0 0.00 0.00 0.00 97 1016.1
20260505082323 10 309 0.0 0.0 0.00 0.00 0.00 97 1016.0
20260505081819 10 309 0.0 0.0 0.00 0.00 0.00 97 1016.2
20260505081316 10 309 0.0 0.0 0.00 0.00 0.00 97 1016.2
20260505080813 10 309 0.0 0.0 0.00 0.00 0.00 96 1016.4
20260505080309 10 309 0.0 0.0 0.00 0.00 0.00 96 1016.2
20260505075804 11 309 0.0 0.0 0.00 0.00 0.00 96 1016.1
20260505075304 11 309 0.0 0.0 0.00 0.00 0.00 96 1016.0
20260505074759 11 309 0.0 0.0 0.00 0.00 0.00 96 1016.2
20260505074256 11 309 0.0 0.0 0.00 0.00 0.00 96 1015.9
20260505073753 11 309 0.0 0.0 0.00 0.00 0.00 96 1016.0
20260505073251 11 309 0.0 0.0 0.00 0.00 0.00 95 1015.8
20260505072747 11 309 0.0 0.0 0.00 0.00 0.00 95 1016.0
20260505072243 11 309 0.0 0.0 0.00 0.00 0.00 95 1016.1
20260505071739 11 309 0.0 0.0 0.00 0.00 0.00 94 1016.2
20260505071236 11 309 0.0 0.0 0.00 0.00 0.00 94 1015.9
20260505070734 11 309 0.0 0.0 0.00 0.00 0.00 94 1016.1
20260505070230 11 309 0.0 0.0 0.00 0.00 0.00 94 1016.0
20260505065726 11 309 0.0 0.0 0.00 0.00 0.00 93 1015.8
20260505065223 11 309 0.0 0.0 0.00 0.00 0.00 93 1015.9
20260505064720 11 309 0.0 0.0 0.00 0.00 0.00 92 1016.3
20260505064218 11 309 0.0 0.0 0.00 0.00 0.00 92 1016.0
20260505063715 12 309 0.0 0.0 0.00 0.00 0.00 92 1016.2
20260505063211 12 309 0.0 0.0 0.00 0.00 0.00 91 1016.1
20260505062708 12 308 0.0 0.0 0.00 0.00 0.00 90 1016.0
20260505062206 12 309 0.0 0.0 0.00 0.00 0.00 89 1016.1
20260505061702 12 309 0.0 0.0 0.00 0.00 0.00 88 1016.0
20260505061200 12 309 0.0 0.0 0.00 0.00 0.00 87 1016.3
20260505060657 12 309 0.0 0.0 0.00 0.00 0.00 86 1016.1
20260505060154 12 309 0.0 0.0 0.00 0.00 0.00 85 1016.4